DELTA 1 DEB, 10663

Orbit data source: Space-Track

DELTA 1 DEB, 10663 is space debris in SSO originally from a launch on Thu, 29 Jul 1976 UTC launched from the Air Force Western Test Range (AFWTR). Debris objects in space refer to the collection of defunct objects orbiting the Earth. Examples of debris include non-operational satellites, rocket bodies, and fragments generated from explosions, collisions, or faulty payload assembly.

Loading next visibility...
Identifier
10663, 1976-077Z
Orbit
SSO
Country
Flag of USUS
Related business
Manufacturer
Unknown
Mission
Spacecraft
Bus & Motor
Unknown
Mass
Unknown
Launch date (UTC)
1976-07-29 (50 years ago)
Launch vehicle
Unknown
Launch site
Air Force Western Test Range (AFWTR)
Object type
Payload
Rocket body
Debris
Shape & HBR
Unknown shape, 0.1 m
Radar Cross Section
Small (<0.1 m²)

Expand to show TLE details & history
Last TLE update: 13 hours ago

TLE from 13 hours ago
0 DELTA 1 DEB
1 10663U 76077Z   26033.51592860  .00009137  00000-0  55148-2 0  9998
2 10663 100.6051  34.6887 0107114 183.9603 176.0721 14.04042365412034
Epoch: 2026-02-02T12:22Z
TLE epoch observation values (Epoch: 2026-02-02T12:22:56.231Z)
Latitude
0.00001°
Longitude
76.2443°
Altitude
960.236 km
Speed
7.332 km/s
True Right ascension
02h 18m 45s
True Declination
0° 00' 00"
Sunlit
Object was in daylight at epoch
Visualization orbit readout
Latitude
Unknown
Longitude
Unknown
Altitude
Unknown
Speed
Unknown
Apparent Right ascension
Unknown
Apparent Declination
Unknown
Sunlit
N/A
Visualization observer readout
Local Sidereal Time
02:46:07
Azimuth
Unknown
Elevation
Unknown
Doppler factor
Unknown
Orbital elements
Apogee altitude
954.824 km
Perigee altitude
799.396 km
Semi-major axis
7,255.247 km
Eccentricity
0.01071
Inclination
100.6051°
RAAN
34.6887°
Arg. of periapsis
183.9603°
True anomaly
176.15507°
Mean anomaly
176.0721°
Eccentric anomaly
176.1137°
Mean motion
3.51208 °/min
Orbital period
102.5 mins
BSTAR
0.0055148
Loading maneuver chart data...
Computing Atmospheric mass density...
Loading historical data...
Loading historical data...
Loading historical data...
Loading historical data...
Loading historical data...
Loading historical data...
Loading historical data...

Documentation

Showing up to 5 results
|